CHINASAT 10 (ZX 10)

Last updated on Jan. 20, 2021, 6:22 a.m. UTC

1 37677U 11026A   21019.93365104 -.00000347  00000-0  00000-0 0  9999
2 37677   0.0182 259.0918 0003455 300.3635   6.7203  1.00272200 35194
UTC
Height (km)
Latitude
Longitude
Inclination
Orbital Period
UTC large
Height (km)
Speed (km/s)
/
Latitude / Longitude
Inclination (degrees)
Orbital Period (minutes)
Azimuth
Elevation
Range (km)
Doppler Factor
iOS Compass Heading
iOS Angle

Next 30 passes for location: Hong Kong

Rise time Rise Azimuth (degrees) Set time Set Azimuth (degrees) Duration Max altitude (degrees)

No matching passes for this satellites